• In Uzbekistan
  • List of Countries
  • For 7 days
  • Water Temperature
  • Satellite Maps
  • Weather Map
  • Weather Widgets
  • user-avatar
    Login

    Hourly Weather Karakol

    Today, 25 September, Tuesday

    Time Temperature Precipitation Wind Pressure Humidity
    00:00 +4°C° 0.1 mm 3 mps 607 mmHg 77%
    01:00 +3°C° 0.1 mm 3 mps 606 mmHg 76%
    02:00 +3°C° 0.1 mm 3 mps 606 mmHg 75%
    03:00 +2°C° 0 mm 3 mps 606 mmHg 71%
    04:00 +2°C° 0 mm 3 mps 606 mmHg 67%
    05:00 +1°C° 0 mm 3 mps 606 mmHg 63%
    06:00 +3°C° 0 mm 3 mps 607 mmHg 57%
    07:00 +5°C° 0 mm 2 mps 607 mmHg 51%
    08:00 +7°C° 0 mm 2 mps 608 mmHg 45%
    09:00 +8°C° 0 mm 2 mps 608 mmHg 43%
    10:00 +9°C° 0 mm 2 mps 608 mmHg 41%
    11:00 +11°C° 0 mm 1 mps 609 mmHg 39%
    12:00 +11°C° 0 mm 1 mps 609 mmHg 39%
    13:00 +12°C° 0 mm 1 mps 608 mmHg 38%
    14:00 +12°C° 0 mm 1 mps 608 mmHg 38%
    15:00 +11°C° 0 mm 1 mps 608 mmHg 40%
    16:00 +10°C° 0 mm 1 mps 608 mmHg 42%
    17:00 +9°C° 0 mm 1 mps 608 mmHg 44%
    18:00 +7°C° 0 mm 2 mps 608 mmHg 44%
    19:00 +6°C° 0 mm 2 mps 607 mmHg 44%
    20:00 +5°C° 0 mm 2 mps 607 mmHg 45%
    21:00 +5°C° 0 mm 2 mps 607 mmHg 43%
    22:00 +5°C° 0 mm 2 mps 607 mmHg 40%
    23:00 +4°C° 0 mm 3 mps 607 mmHg 38%

    Tomorrow, 26 September, Wednesday

    Time Temperature Precipitation Wind Pressure Humidity
    00:00 +4°C° 0 mm 3 mps 607 mmHg 36%
    01:00 +4°C° 0 mm 3 mps 607 mmHg 34%
    02:00 +4°C° 0 mm 3 mps 607 mmHg 31%
    03:00 +4°C° 0 mm 3 mps 607 mmHg 31%
    04:00 +5°C° 0 mm 2 mps 607 mmHg 30%
    05:00 +5°C° 0 mm 2 mps 607 mmHg 30%
    06:00 +6°C° 0 mm 2 mps 608 mmHg 31%
    07:00 +8°C° 0 mm 2 mps 608 mmHg 33%
    08:00 +10°C° 0 mm 2 mps 609 mmHg 34%
    09:00 +12°C° 0 mm 2 mps 609 mmHg 34%
    10:00 +13°C° 0 mm 2 mps 609 mmHg 34%
    11:00 +14°C° 0 mm 2 mps 610 mmHg 34%
    12:00 +15°C° 0 mm 2 mps 609 mmHg 34%
    13:00 +15°C° 0 mm 2 mps 609 mmHg 35%
    14:00 +15°C° 0 mm 2 mps 609 mmHg 35%
    15:00 +14°C° 0 mm 2 mps 609 mmHg 37%
    16:00 +13°C° 0 mm 2 mps 608 mmHg 39%
    17:00 +12°C° 0 mm 2 mps 608 mmHg 41%
    18:00 +10°C° 0 mm 2 mps 608 mmHg 41%
    19:00 +9°C° 0 mm 2 mps 608 mmHg 41%
    20:00 +8°C° 0 mm 3 mps 608 mmHg 42%
    21:00 +8°C° 0 mm 3 mps 608 mmHg 42%
    22:00 +8°C° 0 mm 3 mps 608 mmHg 42%
    23:00 +8°C° 0 mm 3 mps 608 mmHg 43%

    Day after tomorrow, 27 September, Thursday

    Time Temperature Precipitation Wind Pressure Humidity
    00:00 +8°C° 0 mm 3 mps 608 mmHg 43%
    01:00 +8°C° 0 mm 3 mps 608 mmHg 44%
    02:00 +8°C° 0 mm 3 mps 608 mmHg 44%
    03:00 +8°C° 0 mm 3 mps 608 mmHg 45%
    04:00 +8°C° 0 mm 3 mps 608 mmHg 45%
    05:00 +8°C° 0 mm 3 mps 608 mmHg 46%
    06:00 +9°C° 0 mm 3 mps 608 mmHg 45%
    07:00 +10°C° 0 mm 3 mps 609 mmHg 45%
    08:00 +13°C° 0 mm 2 mps 610 mmHg 44%
    09:00 +14°C° 0 mm 2 mps 610 mmHg 43%
    10:00 +15°C° 0 mm 2 mps 610 mmHg 42%
    11:00 +15°C° 0 mm 2 mps 610 mmHg 41%
    12:00 +15°C° 0 mm 2 mps 610 mmHg 42%
    13:00 +16°C° 0 mm 2 mps 609 mmHg 43%
    14:00 +16°C° 0 mm 1 mps 609 mmHg 43%
    15:00 +15°C° 0 mm 1 mps 609 mmHg 46%
    16:00 +14°C° 0 mm 1 mps 609 mmHg 49%
    17:00 +13°C° 0 mm 1 mps 608 mmHg 51%
    18:00 +12°C° 0 mm 2 mps 608 mmHg 52%
    19:00 +12°C° 0 mm 2 mps 609 mmHg 53%
    20:00 +10°C° 0 mm 2 mps 609 mmHg 54%
    21:00 +10°C° 0 mm 2 mps 608 mmHg 55%
    22:00 +9°C° 0 mm 2 mps 608 mmHg 56%
    23:00 +9°C° 0 mm 2 mps 608 mmHg 57%

    28 September, Friday

    Time Temperature Precipitation Wind Pressure Humidity
    00:00 +9°C° 0 mm 2 mps 608 mmHg 57%
    01:00 +9°C° 0 mm 2 mps 607 mmHg 57%
    02:00 +8°C° 0 mm 2 mps 607 mmHg 58%
    03:00 +8°C° 0 mm 2 mps 607 mmHg 58%
    04:00 +8°C° 0 mm 2 mps 607 mmHg 59%
    05:00 +8°C° 0 mm 2 mps 607 mmHg 59%
    06:00 +9°C° 0 mm 2 mps 608 mmHg 58%
    07:00 +10°C° 0 mm 2 mps 608 mmHg 57%
    08:00 +12°C° 0 mm 2 mps 609 mmHg 55%
    09:00 +13°C° 0 mm 2 mps 609 mmHg 53%
    10:00 +14°C° 0 mm 1 mps 609 mmHg 51%
    11:00 +14°C° 0 mm 1 mps 609 mmHg 49%
    12:00 +15°C° 0 mm 1 mps 609 mmHg 49%
    13:00 +15°C° 0 mm 1 mps 609 mmHg 49%
    14:00 +15°C° 0 mm 1 mps 609 mmHg 49%
    15:00 +14°C° 0.2 mm 1 mps 609 mmHg 53%
    16:00 +13°C° 0.2 mm 1 mps 609 mmHg 56%
    17:00 +12°C° 0.2 mm 1 mps 609 mmHg 60%
    18:00 +11°C° 0.3 mm 1 mps 609 mmHg 63%
    19:00 +11°C° 0.3 mm 1 mps 609 mmHg 65%
    20:00 +10°C° 0.3 mm 1 mps 610 mmHg 68%
    21:00 +9°C° 0.1 mm 2 mps 610 mmHg 68%
    22:00 +8°C° 0.1 mm 2 mps 610 mmHg 67%
    23:00 +8°C° 0.1 mm 2 mps 610 mmHg 67%

    29 September, Saturday

    Time Temperature Precipitation Wind Pressure Humidity
    00:00 +8°C° 0 mm 2 mps 610 mmHg 67%
    01:00 +7°C° 0 mm 2 mps 609 mmHg 67%
    02:00 +7°C° 0 mm 2 mps 609 mmHg 66%
    03:00 +7°C° 0 mm 2 mps 609 mmHg 65%
    04:00 +7°C° 0 mm 2 mps 610 mmHg 63%
    05:00 +6°C° 0 mm 2 mps 610 mmHg 62%
    06:00 +8°C° 0 mm 2 mps 611 mmHg 58%
    07:00 +9°C° 0 mm 2 mps 611 mmHg 54%
    08:00 +10°C° 0 mm 2 mps 612 mmHg 49%
    09:00 +12°C° 0 mm 1 mps 612 mmHg 47%
    10:00 +13°C° 0 mm 1 mps 613 mmHg 44%
    11:00 +14°C° 0 mm 1 mps 613 mmHg 41%
    12:00 +15°C° 0 mm 1 mps 613 mmHg 41%
    13:00 +15°C° 0 mm 1 mps 613 mmHg 42%
    14:00 +15°C° 0 mm 1 mps 612 mmHg 42%
    15:00 +14°C° 0 mm 1 mps 612 mmHg 45%
    16:00 +13°C° 0 mm 1 mps 612 mmHg 48%
    17:00 +12°C° 0 mm 1 mps 612 mmHg 52%
    18:00 +12°C° 0 mm 1 mps 612 mmHg 52%
    19:00 +10°C° 0 mm 2 mps 612 mmHg 52%
    20:00 +9°C° 0 mm 2 mps 612 mmHg 52%
    21:00 +9°C° 0 mm 2 mps 612 mmHg 51%
    22:00 +9°C° 0 mm 2 mps 611 mmHg 50%
    23:00 +8°C° 0 mm 2 mps 611 mmHg 49%

    30 September, Sunday

    Time Temperature Precipitation Wind Pressure Humidity
    00:00 +8°C° 0 mm 2 mps 611 mmHg 48%
    01:00 +8°C° 0 mm 3 mps 611 mmHg 47%
    02:00 +8°C° 0 mm 3 mps 611 mmHg 46%
    03:00 +8°C° 0 mm 3 mps 610 mmHg 45%
    04:00 +8°C° 0 mm 3 mps 610 mmHg 45%
    05:00 +8°C° 0 mm 3 mps 610 mmHg 45%
    06:00 +9°C° 0 mm 3 mps 611 mmHg 44%
    07:00 +11°C° 0 mm 3 mps 611 mmHg 43%
    08:00 +12°C° 0 mm 3 mps 612 mmHg 42%
    09:00 +14°C° 0 mm 3 mps 612 mmHg 40%
    10:00 +16°C° 0 mm 3 mps 612 mmHg 38%
    11:00 +17°C° 0 mm 3 mps 612 mmHg 36%
    12:00 +17°C° 0 mm 2 mps 611 mmHg 36%
    13:00 +17°C° 0 mm 2 mps 611 mmHg 35%
    14:00 +18°C° 0 mm 2 mps 611 mmHg 35%
    15:00 +16°C° 0 mm 2 mps 610 mmHg 39%
    16:00 +15°C° 0 mm 1 mps 610 mmHg 43%
    17:00 +14°C° 0 mm 1 mps 609 mmHg 46%
    18:00 +13°C° 0 mm 2 mps 609 mmHg 46%
    19:00 +12°C° 0 mm 2 mps 609 mmHg 46%
    20:00 +11°C° 0 mm 3 mps 609 mmHg 45%
    21:00 +10°C° 0 mm 3 mps 609 mmHg 45%
    22:00 +10°C° 0 mm 3 mps 609 mmHg 45%
    23:00 +10°C° 0 mm 3 mps 608 mmHg 45%
    Show more